Regional Weather Roundup
Issued by NWS

Home | Current Version | Previous Version | Graphics & Text | Print | Product List | Glossary On
Versions: 1 2 3 4 5 6 7 8 9 10 11 12 13 14 15 16 17 18 19 20 21 22 23 24 25 26 27 28 29 30 31 32 33 34 35 36 37 38 39 40 41 42 43 44 45 46 47 48 49 50
904
ASUS43 KLMK 201002
RWRKY
KENTUCKY REGIONAL WEATHER ROUNDUP
NATIONAL WEATHER SERVICE LOUISVILLE KY
600 AM EDT FRI APR 20 2018

NOTE "FAIR" INDICATES FEW OR NO CLOUDS BELOW 12,000 FEET
WITH NO SIGNIFICANT WEATHER AND/OR OBSTRUCTIONS TO VISIBILITY.

KYZ001>023-026-027-061>063-070>075-201100-
WESTERN AND SOUTH CENTRAL KENTUCKY

CITY           SKY/WX    TMP DP  RH WIND       PRES   REMARKS
PADUCAH        FAIR      37  30  75 CALM      30.40R
HENDERSON      FAIR      40  22  48 NE10      30.42R WCI  33
OWENSBORO      FAIR      40  21  46 N9        30.41R WCI  34
HOPKINSVILLE   FAIR      38  31  75 N6        30.37R WCI  33
BOWLING GREEN  FAIR      36  33  89 CALM      30.38R
GLASGOW        NOT AVBL
$$

KYZ024-025-028>034-038-045-046-053-201100-
NORTH CENTRAL KENTUCKY

CITY           SKY/WX    TMP DP  RH WIND       PRES   REMARKS
LOUISVILLE/SDF FAIR      38  23  55 N10       30.41S WCI  31
LOUISVILLE/LOU FAIR      37  24  59 N5        30.42R WCI  33
FORT KNOX      FAIR      37  22  54 N9        30.39S WCI  31
$$

KYZ035>037-039>044-047>052-055>060-089>105-201100-
NORTHEAST KENTUCKY

CITY           SKY/WX    TMP DP  RH WIND       PRES   REMARKS
LEXINGTON      FAIR      35  26  69 N6        30.39R WCI  30
COVINGTON      FAIR      36  28  73 N9        30.40R WCI  29
FRANKFORT      FAIR      36  25  64 N3        30.39R
$$

KYZ054-064>069-076>088-106>120-201100-
SOUTHEAST KENTUCKY

CITY           SKY/WX    TMP DP  RH WIND       PRES   REMARKS
JACKSON        FAIR      37  29  72 NE3       30.35R
LONDON         FAIR      30  28  92 CALM      30.36R
SOMERSET       NOT AVBL
MIDDLESBORO    FAIR      30  30 100 CALM      30.39R
MONTICELLO     FAIR      25  22  88 VRB6      30.39R WCI  18
$$





USA.gov is the U.S. government's official web portal to all federal, state and local government web resources and services.